When you browse on this site, cookies collect data to enhance your experience and personalize the content and advertising you see.
Visit our Privacy Policy to learn more. By continuing to use the site, you agree to this use of cookies and data.
  • In Hungary
  • List of Countries
  • For 7 days
  • Water Temperature
  • Weather Map
  • News
  • Weather Widgets
  • user-avatar
    Login

    Hourly Weather Sankt Polten

    Today, 27 May, Wednesday

    Time Temperature Precipitation Wind Pressure Humidity
    00:00 +9°C° 0 mm 1 mps 748 mmHg 94%
    01:00 +9°C° 0 mm 1 mps 748 mmHg 96%
    02:00 +8°C° 0 mm 1 mps 747 mmHg 96%
    03:00 +8°C° 0 mm 1 mps 747 mmHg 96%
    04:00 +8°C° 0 mm 1 mps 747 mmHg 96%
    05:00 +9°C° 0 mm 1 mps 747 mmHg 94%
    06:00 +10°C° 0 mm 2 mps 747 mmHg 92%
    07:00 +12°C° 0 mm 1 mps 747 mmHg 90%
    08:00 +14°C° 0.1 mm 2 mps 747 mmHg 81%
    09:00 +15°C° 0.1 mm 2 mps 747 mmHg 72%
    10:00 +17°C° 0.1 mm 2 mps 747 mmHg 62%
    11:00 +18°C° 0.1 mm 2 mps 746 mmHg 58%
    12:00 +19°C° 0.1 mm 2 mps 746 mmHg 53%
    13:00 +20°C° 0.1 mm 2 mps 746 mmHg 49%
    14:00 +20°C° 0 mm 2 mps 745 mmHg 50%
    15:00 +20°C° 0 mm 3 mps 745 mmHg 52%
    16:00 +19°C° 0 mm 3 mps 744 mmHg 54%
    17:00 +18°C° 0.1 mm 2 mps 744 mmHg 62%
    18:00 +17°C° 0.1 mm 2 mps 744 mmHg 70%
    19:00 +15°C° 0.1 mm 2 mps 744 mmHg 78%
    20:00 +14°C° 0 mm 1 mps 744 mmHg 80%
    21:00 +13°C° 0 mm 1 mps 745 mmHg 83%
    22:00 +11°C° 0 mm 1 mps 745 mmHg 85%
    23:00 +11°C° 0 mm 1 mps 745 mmHg 86%

    Tomorrow, 28 May, Thursday

    Time Temperature Precipitation Wind Pressure Humidity
    00:00 +11°C° 0 mm 1 mps 744 mmHg 86%
    01:00 +10°C° 0 mm 1 mps 744 mmHg 86%
    02:00 +10°C° 0 mm 1 mps 744 mmHg 86%
    03:00 +11°C° 0 mm 1 mps 743 mmHg 86%
    04:00 +11°C° 0 mm 1 mps 743 mmHg 86%
    05:00 +10°C° 0 mm 2 mps 743 mmHg 85%
    06:00 +12°C° 0 mm 2 mps 742 mmHg 85%
    07:00 +13°C° 0 mm 2 mps 742 mmHg 84%
    08:00 +13°C° 0.2 mm 2 mps 742 mmHg 85%
    09:00 +14°C° 0.2 mm 2 mps 742 mmHg 86%
    10:00 +13°C° 0.2 mm 3 mps 742 mmHg 87%
    11:00 +12°C° 1.7 mm 3 mps 742 mmHg 90%
    12:00 +12°C° 1.7 mm 3 mps 742 mmHg 92%
    13:00 +11°C° 1.7 mm 3 mps 741 mmHg 95%
    14:00 +12°C° 0.7 mm 2 mps 741 mmHg 94%
    15:00 +12°C° 0.7 mm 2 mps 741 mmHg 93%
    16:00 +13°C° 0.7 mm 2 mps 741 mmHg 91%
    17:00 +12°C° 0.4 mm 2 mps 741 mmHg 91%
    18:00 +12°C° 0.4 mm 1 mps 741 mmHg 91%
    19:00 +12°C° 0.4 mm 1 mps 741 mmHg 91%
    20:00 +11°C° 0.1 mm 1 mps 741 mmHg 92%
    21:00 +10°C° 0.1 mm 1 mps 742 mmHg 93%
    22:00 +8°C° 0.1 mm 2 mps 742 mmHg 94%
    23:00 +8°C° 0.1 mm 2 mps 742 mmHg 95%

    Day after tomorrow, 29 May, Friday

    Time Temperature Precipitation Wind Pressure Humidity
    00:00 +8°C° 0.1 mm 2 mps 741 mmHg 95%
    01:00 +8°C° 0.1 mm 2 mps 741 mmHg 96%
    02:00 +8°C° 0.1 mm 2 mps 741 mmHg 96%
    03:00 +8°C° 0.1 mm 2 mps 741 mmHg 96%
    04:00 +8°C° 0.1 mm 2 mps 741 mmHg 96%
    05:00 +8°C° 0.2 mm 2 mps 741 mmHg 96%
    06:00 +9°C° 0.2 mm 2 mps 741 mmHg 95%
    07:00 +9°C° 0.2 mm 2 mps 741 mmHg 95%
    08:00 +10°C° 0.2 mm 2 mps 741 mmHg 92%
    09:00 +12°C° 0.2 mm 2 mps 741 mmHg 90%
    10:00 +13°C° 0.2 mm 2 mps 741 mmHg 87%
    11:00 +14°C° 0.4 mm 2 mps 740 mmHg 84%
    12:00 +14°C° 0.4 mm 2 mps 740 mmHg 81%
    13:00 +15°C° 0.4 mm 2 mps 740 mmHg 78%
    14:00 +15°C° 0.4 mm 2 mps 739 mmHg 77%
    15:00 +16°C° 0.4 mm 2 mps 739 mmHg 76%
    16:00 +16°C° 0.4 mm 2 mps 739 mmHg 76%
    17:00 +15°C° 0.6 mm 1 mps 739 mmHg 81%
    18:00 +14°C° 0.6 mm 1 mps 739 mmHg 86%
    19:00 +13°C° 0.6 mm 1 mps 739 mmHg 92%
    20:00 +12°C° 0.2 mm 1 mps 739 mmHg 92%
    21:00 +12°C° 0.2 mm 1 mps 739 mmHg 92%
    22:00 +11°C° 0.2 mm 1 mps 739 mmHg 93%
    23:00 +10°C° 0 mm 1 mps 739 mmHg 93%

    30 May, Saturday

    Time Temperature Precipitation Wind Pressure Humidity
    00:00 +10°C° 0 mm 1 mps 739 mmHg 93%
    01:00 +9°C° 0 mm 1 mps 739 mmHg 92%
    02:00 +9°C° 0 mm 1 mps 739 mmHg 93%
    03:00 +8°C° 0 mm 1 mps 739 mmHg 93%
    04:00 +7°C° 0 mm 1 mps 739 mmHg 93%
    05:00 +8°C° 0 mm 1 mps 739 mmHg 89%
    06:00 +9°C° 0 mm 1 mps 739 mmHg 84%
    07:00 +10°C° 0 mm 2 mps 739 mmHg 80%
    08:00 +12°C° 0 mm 2 mps 739 mmHg 71%
    09:00 +13°C° 0 mm 2 mps 739 mmHg 62%
    10:00 +13°C° 0 mm 3 mps 739 mmHg 54%
    11:00 +13°C° 0.1 mm 3 mps 738 mmHg 54%
    12:00 +14°C° 0.1 mm 3 mps 738 mmHg 54%
    13:00 +14°C° 0.1 mm 3 mps 738 mmHg 54%
    14:00 +14°C° 0.1 mm 3 mps 737 mmHg 55%
    15:00 +14°C° 0.1 mm 3 mps 737 mmHg 56%
    16:00 +16°C° 0.1 mm 3 mps 737 mmHg 56%
    17:00 +13°C° 0.1 mm 3 mps 737 mmHg 64%
    18:00 +13°C° 0.1 mm 2 mps 737 mmHg 71%
    19:00 +12°C° 0.1 mm 1 mps 737 mmHg 78%
    20:00 +10°C° 0 mm 2 mps 737 mmHg 81%
    21:00 +9°C° 0 mm 2 mps 737 mmHg 84%
    22:00 +8°C° 0 mm 2 mps 738 mmHg 87%
    23:00 +8°C° 0 mm 2 mps 738 mmHg 87%

    31 May, Sunday

    Time Temperature Precipitation Wind Pressure Humidity
    00:00 +8°C° 0 mm 2 mps 737 mmHg 87%
    01:00 +8°C° 0 mm 2 mps 737 mmHg 87%
    02:00 +8°C° 0 mm 2 mps 737 mmHg 88%
    03:00 +7°C° 0 mm 2 mps 737 mmHg 89%
    04:00 +7°C° 0 mm 2 mps 737 mmHg 90%
    05:00 +8°C° 0 mm 2 mps 737 mmHg 87%
    06:00 +9°C° 0 mm 2 mps 736 mmHg 84%
    07:00 +10°C° 0 mm 3 mps 736 mmHg 81%
    08:00 +11°C° 0 mm 3 mps 736 mmHg 77%
    09:00 +12°C° 0 mm 4 mps 736 mmHg 72%
    10:00 +13°C° 0 mm 4 mps 736 mmHg 68%
    11:00 +13°C° 0 mm 4 mps 736 mmHg 69%
    12:00 +14°C° 0 mm 4 mps 736 mmHg 71%
    13:00 +14°C° 0 mm 3 mps 735 mmHg 72%
    14:00 +13°C° 0.2 mm 3 mps 735 mmHg 77%
    15:00 +13°C° 0.2 mm 2 mps 735 mmHg 82%
    16:00 +13°C° 0.2 mm 1 mps 735 mmHg 87%
    17:00 +12°C° 0.5 mm 2 mps 735 mmHg 90%
    18:00 +12°C° 0.5 mm 2 mps 735 mmHg 93%
    19:00 +10°C° 0.5 mm 2 mps 735 mmHg 96%
    20:00 +10°C° 0.9 mm 2 mps 735 mmHg 97%
    21:00 +10°C° 0.9 mm 3 mps 735 mmHg 97%
    22:00 +10°C° 0.9 mm 3 mps 735 mmHg 97%
    23:00 +10°C° 1.8 mm 3 mps 734 mmHg 97%

    1 June, Monday

    Time Temperature Precipitation Wind Pressure Humidity
    00:00 +10°C° 1.8 mm 3 mps 734 mmHg 98%
    01:00 +10°C° 1.8 mm 3 mps 734 mmHg 98%
    02:00 +10°C° 1.3 mm 3 mps 734 mmHg 98%
    03:00 +10°C° 1.3 mm 3 mps 734 mmHg 98%
    04:00 +10°C° 1.3 mm 3 mps 734 mmHg 98%
    05:00 +10°C° 0.7 mm 2 mps 734 mmHg 98%
    06:00 +10°C° 0.7 mm 2 mps 734 mmHg 98%
    07:00 +12°C° 0.7 mm 2 mps 734 mmHg 98%
    08:00 +12°C° 0.2 mm 1 mps 735 mmHg 98%
    09:00 +12°C° 0.2 mm 1 mps 735 mmHg 97%
    10:00 +12°C° 0.2 mm 1 mps 735 mmHg 97%
    11:00 +13°C° 0.1 mm 1 mps 735 mmHg 96%
    12:00 +13°C° 0.1 mm 1 mps 736 mmHg 95%
    13:00 +14°C° 0.1 mm 1 mps 736 mmHg 94%
    14:00 +15°C° 0.1 mm 1 mps 736 mmHg 88%
    15:00 +16°C° 0.1 mm 1 mps 736 mmHg 83%
    16:00 +18°C° 0.1 mm 1 mps 736 mmHg 78%
    17:00 +16°C° 0 mm 1 mps 735 mmHg 81%
    18:00 +15°C° 0 mm 0 mps 735 mmHg 85%
    19:00 +14°C° 0 mm 0 mps 735 mmHg 88%
    20:00 +13°C° 0 mm 0 mps 736 mmHg 90%
    21:00 +13°C° 0 mm 1 mps 736 mmHg 92%
    22:00 +11°C° 0 mm 1 mps 736 mmHg 93%
    23:00 +11°C° 0 mm 1 mps 736 mmHg 93%
    Show more